| time (UTC) | temp F | wind direction | speed knots | gust knots | rain 1hr in | rain 24hr in | rain mn in | humidity % | barometer mb |
| 20260505125017 | 66 | 248 | 0.9 | 2.6 | 0.00 | 0.00 | 0.00 | 59 | 1012.2 |
| 20260505124037 | 65 | 273 | 0.9 | 3.5 | 0.00 | 0.00 | 0.00 | 60 | 1012.1 |
| 20260505123037 | 63 | 264 | 1.7 | 6.1 | 0.00 | 0.00 | 0.00 | 62 | 1012.1 |
| 20260505122017 | 62 | 271 | 0.9 | 7.0 | 0.00 | 0.00 | 0.00 | 63 | 1012.1 |
| 20260505121117 | 61 | 268 | 1.7 | 7.0 | 0.00 | 0.00 | 0.00 | 64 | 1011.9 |
| 20260505120017 | 60 | 273 | 1.7 | 7.0 | 0.00 | 0.00 | 0.00 | 65 | 1011.8 |
| 20260505115017 | 60 | 264 | 1.7 | 7.0 | 0.00 | 0.00 | 0.00 | 67 | 1011.7 |
| 20260505114037 | 59 | 256 | 2.6 | 7.0 | 0.00 | 0.00 | 0.00 | 67 | 1011.7 |
| 20260505113038 | 59 | 275 | 1.7 | 7.0 | 0.00 | 0.00 | 0.00 | 69 | 1011.7 |
| 20260505112037 | 58 | 279 | 0.9 | 4.3 | 0.00 | 0.00 | 0.00 | 69 | 1011.6 |
| 20260505111037 | 58 | 268 | 0.9 | 4.3 | 0.00 | 0.00 | 0.00 | 69 | 1011.4 |
| 20260505102037 | 58 | 256 | 0.9 | 3.5 | 0.00 | 0.00 | 0.00 | 69 | 1010.9 |
| 20260505101057 | 58 | 279 | 1.7 | 6.1 | 0.00 | 0.00 | 0.00 | 69 | 1010.9 |
| 20260505100137 | 58 | 267 | 0.9 | 6.1 | 0.00 | 0.00 | 0.00 | 68 | 1010.9 |
| 20260505095017 | 58 | 295 | 1.7 | 6.1 | 0.00 | 0.00 | 0.00 | 68 | 1010.8 |
| 20260505094057 | 58 | 293 | 1.7 | 7.0 | 0.00 | 0.00 | 0.00 | 68 | 1010.8 |
| 20260505093037 | 58 | 299 | 2.6 | 7.0 | 0.00 | 0.00 | 0.00 | 68 | 1010.8 |
| 20260505092017 | 58 | 277 | 1.7 | 5.2 | 0.00 | 0.00 | 0.00 | 68 | 1010.7 |
| 20260505091037 | 58 | 281 | 0.9 | 5.2 | 0.00 | 0.00 | 0.00 | 69 | 1010.6 |
| 20260505090057 | 58 | 270 | 1.7 | 6.1 | 0.00 | 0.00 | 0.00 | 69 | 1010.7 |
| 20260505085037 | 58 | 271 | 1.7 | 6.1 | 0.00 | 0.00 | 0.00 | 70 | 1010.7 |
| 20260505084017 | 58 | 257 | 0.9 | 3.5 | 0.00 | 0.00 | 0.00 | 69 | 1010.7 |
| 20260505083017 | 58 | 271 | 0.9 | 2.6 | 0.00 | 0.00 | 0.00 | 69 | 1010.6 |
| 20260505082037 | 59 | 275 | 0.9 | 2.6 | 0.00 | 0.00 | 0.00 | 68 | 1010.7 |
| 20260505081137 | 59 | 269 | 0.0 | 1.7 | 0.00 | 0.00 | 0.00 | 68 | 1010.6 |
| 20260505080117 | 59 | 275 | 0.0 | 2.6 | 0.00 | 0.00 | 0.00 | 67 | 1010.6 |
| 20260505075117 | 59 | 276 | 0.9 | 2.6 | 0.00 | 0.00 | 0.00 | 67 | 1010.5 |
| 20260505074137 | 59 | 305 | 0.9 | 2.6 | 0.00 | 0.00 | 0.00 | 67 | 1010.5 |
| 20260505073057 | 59 | 305 | 0.9 | 2.6 | 0.00 | 0.00 | 0.00 | 66 | 1010.4 |
| 20260505072057 | 60 | 300 | 0.9 | 3.5 | 0.00 | 0.00 | 0.00 | 66 | 1010.5 |
| 20260505071117 | 60 | 297 | 0.9 | 3.5 | 0.00 | 0.00 | 0.00 | 65 | 1010.5 |
| 20260505070017 | 60 | 290 | 0.9 | 2.6 | 0.00 | 0.00 | 0.00 | 65 | 1010.5 |
| 20260505065037 | 61 | 270 | 0.9 | 3.5 | 0.00 | 0.00 | 0.00 | 64 | 1010.5 |
| 20260505064036 | 61 | 295 | 0.9 | 3.5 | 0.00 | 0.00 | 0.00 | 64 | 1010.6 |
| 20260505063016 | 61 | 300 | 1.7 | 6.1 | 0.00 | 0.00 | 0.00 | 63 | 1010.6 |
| 20260505062036 | 62 | 298 | 1.7 | 6.1 | 0.00 | 0.00 | 0.00 | 62 | 1010.7 |
| 20260505061036 | 62 | 301 | 1.7 | 5.2 | 0.00 | 0.00 | 0.00 | 62 | 1010.6 |
| 20260505060137 | 62 | 301 | 1.7 | 6.1 | 0.00 | 0.00 | 0.00 | 61 | 1010.7 |
| 20260505055016 | 63 | 295 | 2.6 | 6.1 | 0.00 | 0.00 | 0.00 | 61 | 1010.7 |
| 20260505054036 | 63 | 298 | 1.7 | 5.2 | 0.00 | 0.00 | 0.00 | 60 | 1010.8 |
| 20260505053036 | 63 | 307 | 1.7 | 5.2 | 0.00 | 0.00 | 0.00 | 60 | 1010.8 |
| 20260505052016 | 63 | 300 | 1.7 | 5.2 | 0.00 | 0.00 | 0.00 | 59 | 1010.8 |
| 20260505051016 | 63 | 297 | 1.7 | 7.0 | 0.00 | 0.00 | 0.00 | 59 | 1010.7 |
| 20260505041036 | 62 | 298 | 1.7 | 7.0 | 0.00 | 0.00 | 0.00 | 59 | 1010.4 |
| 20260505040016 | 61 | 303 | 1.7 | 7.0 | 0.00 | 0.00 | 0.00 | 59 | 1010.4 |
| 20260505035116 | 61 | 302 | 1.7 | 3.5 | 0.00 | 0.00 | 0.00 | 59 | 1010.3 |
| 20260505034016 | 61 | 290 | 0.9 | 3.5 | 0.00 | 0.00 | 0.00 | 59 | 1010.3 |
| 20260505033037 | 61 | 290 | 0.9 | 2.6 | 0.00 | 0.00 | 0.00 | 58 | 1010.3 |
| 20260505032016 | 61 | 290 | 0.0 | 1.7 | 0.00 | 0.00 | 0.00 | 56 | 1010.4 |
| 20260505031016 | 62 | 0.0 | 0.0 | 0.00 | 0.00 | 0.00 | 54 | 1010.4 | |
| 20260505030016 | 62 | 0.0 | 0.9 | 0.00 | 0.00 | 0.00 | 53 | 1010.4 | |
| 20260505025016 | 63 | 283 | 0.0 | 0.9 | 0.00 | 0.00 | 0.00 | 53 | 1010.5 |
| 20260505024016 | 63 | 0.0 | 0.0 | 0.00 | 0.00 | 0.00 | 51 | 1010.5 | |
| 20260505023016 | 64 | 0.0 | 0.0 | 0.00 | 0.00 | 0.00 | 50 | 1010.5 | |
| 20260505022036 | 64 | 0.0 | 0.0 | 0.00 | 0.00 | 0.00 | 50 | 1010.4 | |
| 20260505021116 | 65 | 0.0 | 0.0 | 0.00 | 0.00 | 0.00 | 49 | 1010.4 | |
| 20260505020056 | 65 | 283 | 0.0 | 1.7 | 0.00 | 0.00 | 0.00 | 49 | 1010.4 |
| 20260505015036 | 65 | 288 | 0.0 | 2.6 | 0.00 | 0.00 | 0.00 | 49 | 1010.4 |
| 20260505014016 | 66 | 294 | 0.9 | 2.6 | 0.00 | 0.00 | 0.00 | 48 | 1010.3 |
| 20260505013016 | 66 | 250 | 0.0 | 1.7 | 0.00 | 0.00 | 0.00 | 47 | 1010.1 |
| 20260505012137 | 66 | 263 | 0.0 | 1.7 | 0.00 | 0.00 | 0.00 | 47 | 1010.0 |
| 20260505011036 | 66 | 284 | 0.0 | 2.6 | 0.00 | 0.00 | 0.00 | 46 | 1009.9 |
| 20260505010116 | 67 | 214 | 0.0 | 2.6 | 0.00 | 0.00 | 0.00 | 46 | 1009.8 |
| 20260505005016 | 67 | 259 | 0.0 | 2.6 | 0.00 | 0.00 | 0.00 | 45 | 1009.8 |
| 20260505004036 | 68 | 241 | 0.9 | 3.5 | 0.00 | 0.00 | 0.00 | 44 | 1009.7 |
| 20260505003016 | 68 | 248 | 0.9 | 3.5 | 0.00 | 0.00 | 0.00 | 43 | 1009.7 |
| 20260505002016 | 69 | 246 | 0.9 | 3.5 | 0.00 | 0.00 | 0.00 | 43 | 1009.6 |
| 20260505001016 | 69 | 251 | 0.9 | 7.0 | 0.00 | 0.00 | 0.00 | 42 | 1009.6 |
| 20260505000016 | 70 | 253 | 0.9 | 7.0 | 0.00 | 0.00 | 0.00 | 41 | 1009.5 |
| 20260504235016 | 71 | 228 | 0.9 | 6.1 | 0.00 | 0.00 | 0.00 | 40 | 1009.4 |
| 20260504234016 | 71 | 247 | 0.9 | 7.8 | 0.00 | 0.00 | 0.00 | 39 | 1009.4 |
| 20260504233016 | 72 | 231 | 1.7 | 7.8 | 0.00 | 0.00 | 0.00 | 38 | 1009.3 |
| 20260504232036 | 73 | 226 | 1.7 | 5.2 | 0.00 | 0.00 | 0.00 | 37 | 1009.3 |
| 20260504231016 | 73 | 222 | 1.7 | 8.7 | 0.00 | 0.00 | 0.00 | 37 | 1009.3 |
| 20260504225056 | 73 | 244 | 1.7 | 10.4 | 0.00 | 0.00 | 0.00 | 36 | 1009.3 |
| 20260504224136 | 74 | 241 | 2.6 | 10.4 | 0.00 | 0.00 | 0.00 | 35 | 1009.3 |
| 20260504223056 | 74 | 255 | 3.5 | 9.6 | 0.00 | 0.00 | 0.00 | 35 | 1009.3 |
| 20260504222016 | 74 | 249 | 2.6 | 8.7 | 0.00 | 0.00 | 0.00 | 35 | 1009.3 |
| 20260504221017 | 74 | 248 | 1.7 | 7.8 | 0.00 | 0.00 | 0.00 | 35 | 1009.3 |
| 20260504220016 | 74 | 241 | 1.7 | 9.6 | 0.00 | 0.00 | 0.00 | 35 | 1009.3 |
| 20260504215016 | 75 | 264 | 3.5 | 10.4 | 0.00 | 0.00 | 0.00 | 34 | 1009.4 |
| 20260504214056 | 75 | 256 | 3.5 | 10.4 | 0.00 | 0.00 | 0.00 | 34 | 1009.4 |
| 20260504213016 | 76 | 252 | 2.6 | 8.7 | 0.00 | 0.00 | 0.00 | 34 | 1009.4 |
| 20260504212016 | 76 | 279 | 3.5 | 8.7 | 0.00 | 0.00 | 0.00 | 34 | 1009.4 |
| 20260504211056 | 76 | 274 | 2.6 | 9.6 | 0.00 | 0.00 | 0.00 | 34 | 1009.5 |
| 20260504210016 | 76 | 273 | 3.5 | 11.3 | 0.00 | 0.00 | 0.00 | 34 | 1009.5 |
| 20260504205016 | 76 | 283 | 3.5 | 11.3 | 0.00 | 0.00 | 0.00 | 34 | 1009.5 |
| 20260504204116 | 76 | 272 | 2.6 | 9.6 | 0.00 | 0.00 | 0.00 | 35 | 1009.5 |
| 20260504203016 | 74 | 283 | 2.6 | 15.6 | 0.00 | 0.00 | 0.00 | 35 | 1009.6 |
| 20260504202038 | 74 | 279 | 4.3 | 15.6 | 0.00 | 0.00 | 0.00 | 35 | 1009.8 |